This demonstration page uses our WeatherBlox Daily Observations layout. Learn more.

Left ArrowRight Arrow

39.95238, -75.16362

Hourly Observations for August 24, 2016

Temp ( °F °C ) Dew Point ( °F °C ) Humidity (%) Winds ( mph kmh ) Pressure ( in mb ) Visibility ( mi km ) Precip ( " mm )
12:54 am 00:54 Mostly Clear 71 21.7 61 16.1 71 71 WSW 7 11 30.29 1026 10 16 0.00 0.00
1:54 am 01:54 Clear 70 21.1 62 16.7 76 76 W 7 11 30.29 1026 10 16 0.00 0.00
2:54 am 02:54 Clear 69 20.6 61 16.1 76 76 WSW 6 9 30.29 1026 10 16 0.00 0.00
3:54 am 03:54 Clear 69 20.6 59 15 70 70 WSW 6 9 30.28 1025 10 16 0.00 0.00
4:54 am 04:54 Clear 68 20 60 15.6 76 76 WSW 5 7 30.28 1026 10 16 0.00 0.00
5:54 am 05:54 Clear 68 20 60 15.6 76 76 SW 5 7 30.29 1026 10 16 0.00 0.00
6:54 am 06:54 Partly Cloudy 68 20 61 16.1 78 78 WSW 6 9 30.30 1026 10 16 0.00 0.00
7:54 am 07:54 Partly Cloudy 71 21.7 59 15 66 66 WSW 5 7 30.31 1027 10 16 0.00 0.00
8:54 am 08:54 Partly Cloudy 74 23.3 62 16.7 67 67 WSW 6 9 30.31 1026 10 16 0.00 0.00
9:54 am 09:54 Partly Cloudy 76 24.4 62 16.7 62 62 SW 7 11 30.30 1026 10 16 0.00 0.00
10:54 am 10:54 Partly Cloudy 80 26.7 63 17.2 56 56 WSW 7 11 30.29 1026 10 16 0.00 0.00
11:54 am 11:54 Partly Cloudy 81 27.2 60 15.6 49 49 W 7 11 30.28 1025 10 16 0.00 0.00
12:54 pm 12:54 Partly Cloudy 84 28.9 61 16.1 46 46 W 9 15 30.26 1025 10 16 0.00 0.00
1:54 pm 13:54 Partly Cloudy 83 28.3 60 15.6 46 46 W 8 13 30.24 1024 10 16 0.00 0.00
2:54 pm 14:54 Partly Cloudy 85 29.4 59 15 42 42 WSW 10 17 30.22 1024 10 16 0.00 0.00
3:54 pm 15:54 Partly Cloudy 85 29.4 59 15 42 42 SSW 14 22 30.21 1023 10 16 0.00 0.00
4:54 pm 16:54 Partly Cloudy 85 29.4 59 15 42 42 SW 8 13 30.19 1023 10 16 0.00 0.00
5:54 pm 17:54 Mostly Cloudy 84 28.9 60 15.6 44 44 WSW 13 20 30.19 1022 10 16 0.00 0.00
6:54 pm 18:54 Mostly Cloudy 82 27.8 62 16.7 51 51 SSW 12 19 30.17 1022 10 16 0.00 0.00
7:54 pm 19:54 Partly Cloudy 79 26.1 64 17.8 60 60 S 14 22 30.18 1022 10 16 0.00 0.00
8:54 pm 20:54 Mostly Cloudy 76 24.4 61 16.1 60 60 S 13 20 30.19 1022 10 16 0.00 0.00
9:54 pm 21:54 Partly Cloudy 75 23.9 61 16.1 62 62 S 12 19 30.20 1023 10 16 0.00 0.00
10:54 pm 22:54 Partly Cloudy 73 22.8 63 17.2 71 71 S 9 15 30.19 1023 10 16 0.00 0.00
11:54 pm 23:54 Partly Cloudy 72 22.2 63 17.2 73 73 SW 5 7 30.19 1023 10 16 0.00 0.00

Powered by AerisWeather